Wind_Speed
31 30 30 29 27 26 26 24 23 20 18 16 14 14 14 13 12 12 13 13 13 12 12 12 11 11 10 10 10 10 10 10 10 11 11 12 13 13 13 14 14 15 16 16
31 30 31 31 30 28 27 26 25 22 20 17 15 14 14 14 13 13 14 14 14 14 13 13 12 12 11 11 11 12 11 11 11 12 12 13 13 14 14 15 15 16 16 16
33 31 31 33 31 30 28 27 26 24 21 19 17 16 15 15 15 15 16 16 16 16 14 13 14 14 13 13 13 13 13 13 13 13 14 14 13 14 14 14 14 15 16 16
35 33 35 31 29 30 29 28 27 26 24 22 21 19 18 17 17 17 17 17 16 16 15 15 15 14 14 14 14 14 14 14 14 14 15 14 14 14 14 14 15 16 16 17
38 36 35 33 31 29 29 28 27 27 25 24 24 23 21 20 19 19 19 18 17 16 16 16 16 16 16 16 16 16 15 15 15 15 15 16 16 15 15 16 17 17 17 18
42 39 38 34 32 32 30 30 28 28 28 27 26 24 23 22 22 21 21 20 18 18 18 18 17 17 17 17 17 17 17 17 17 17 17 17 17 17 17 17 18 18 19 19
45 44 42 38 36 34 34 31 29 29 29 28 27 26 24 23 23 23 22 21 20 20 19 19 19 18 18 18 18 17 17 18 18 18 19 18 18 18 19 19 19 19 19 20
48 47 46 43 40 38 36 34 32 30 29 28 27 27 26 25 25 25 24 23 23 22 22 20 20 20 20 20 19 19 19 19 20 20 20 19 20 20 20 20 20 20 20 21
51 49 47 45 43 41 39 37 34 32 31 29 29 29 28 28 27 27 26 26 25 25 24 22 22 22 21 21 21 20 20 21 21 21 21 22 22 21 22 22 22 22 22 22
52 51 49 48 46 44 42 40 37 34 32 31 31 31 30 30 29 29 28 28 28 27 25 23 22 22 22 21 21 21 21 22 22 22 23 23 23 23 23 23 23 24 24 24
52 52 50 49 47 46 44 41 38 36 33 32 32 32 31 31 31 31 30 28 27 27 26 25 25 24 24 23 23 23 23 23 24 24 24 23 24 24 24 24 24 24 24 24
51 51 51 49 47 46 44 42 40 38 36 34 32 32 32 32 32 31 30 30 29 28 27 27 26 26 25 25 25 25 25 25 25 25 24 25 25 24 24 24 24 24 24 25
49 49 49 49 48 47 46 43 40 38 36 35 34 33 33 33 32 32 32 31 30 29 28 28 28 27 27 27 27 27 27 27 26 26 25 25 25 24 24 24 25 26 25 25
46 46 46 46 46 46 45 43 40 38 37 34 33 33 33 33 32 31 31 30 30 30 31 30 28 28 28 29 28 28 28 28 27 27 26 25 25 25 25 25 25 25 25 25
43 42 41 42 42 42 42 41 40 38 37 35 33 33 32 31 31 31 30 30 30 30 29 29 29 29 30 30 30 29 28 28 27 26 26 25 25 25 25 25 25 25 25 25
39 39 39 39 39 39 39 39 38 37 36 35 33 32 30 29 30 30 30 30 30 30 30 30 30 30 30 30 29 28 27 27 26 26 25 25 24 25 24 24 24 24 25 25
35 36 37 37 37 37 37 36 36 35 33 33 32 31 30 29 29 30 30 31 30 30 30 30 30 29 29 29 28 27 26 26 26 25 25 25 25 24 24 24 24 24 25 25
32 33 34 34 34 35 36 35 34 33 32 31 31 31 31 30 29 28 28 29 28 28 29 28 28 28 28 28 27 26 26 25 25 25 24 24 24 23 23 23 24 24 24 24
30 30 30 31 31 32 33 34 33 32 31 30 29 29 29 28 28 27 27 27 26 26 26 26 26 26 26 25 25 25 24 24 24 24 23 23 23 22 22 22 23 23 23 24
28 28 27 27 27 27 28 28 29 29 29 28 28 27 26 26 25 26 26 26 26 26 25 25 25 25 24 24 24 23 23 23 22 22 22 22 23 22 23 23 23 24 24 25
25 26 24 23 24 25 25 25 25 25 25 25 25 25 24 24 24 24 24 25 25 24 24 24 23 23 23 23 22 22 22 22 22 22 22 22 22 22 23 23 24 25 25 26
22 22 21 21 22 22 22 21 21 22 22 22 22 22 22 22 22 22 22 23 23 22 22 22 22 22 22 22 21 21 21 22 22 22 22 22 23 23 24 25 25 25 25 26
19 20 19 19 20 20 20 19 19 20 20 20 20 20 20 20 21 21 21 21 21 22 22 22 21 21 21 21 21 21 21 21 22 22 23 23 23 24 24 25 25 26 26 27
17 17 18 18 19 18 18 19 19 19 18 18 19 19 20 20 21 21 21 21 21 20 20 21 21 21 20 21 21 21 21 22 22 23 23 24 24 24 25 25 26 27 27 27
15 16 16 17 18 17 17 17 17 17 17 18 18 19 19 19 19 19 20 20 20 20 20 20 20 21 21 21 21 22 22 23 23 23 24 24 25 25 26 26 27 27 27 27
14 14 15 15 16 16 17 17 17 17 17 18 17 17 18 18 17 17 18 18 19 19 19 19 20 20 20 21 21 22 22 23 24 24 24 25 25 26 26 26 27 27 27 27
13 12 13 13 13 14 15 15 15 15 15 16 16 17 17 18 17 17 17 17 18 19 19 19 20 20 21 21 22 22 23 24 24 24 25 25 26 26 27 27 27 27 28 28
Wind_Direction
233 230 232 237 241 245 251 258 264 270 276 284 284 283 284 288 297 306 314 317 316 317 318 318 312 307 305 305 303 302 302 300 296 292 289 288 285 280 278 273 271 271 272 274
235 232 232 235 239 243 248 254 261 267 273 278 281 281 282 290 297 303 311 314 317 318 316 314 308 304 302 304 301 298 297 297 294 292 290 290 290 284 280 276 274 273 273 276
237 235 235 236 238 243 248 253 258 264 269 273 278 283 284 290 295 299 305 308 309 313 310 309 305 301 300 298 297 297 297 295 294 293 291 290 289 288 286 281 279 277 278 278
240 239 240 241 240 244 248 252 256 262 266 268 273 277 281 286 291 296 300 306 308 308 307 306 304 300 299 299 296 295 294 294 294 295 294 290 288 286 286 285 282 280 280 281
242 243 245 245 244 246 249 252 256 260 264 266 269 273 278 282 284 288 294 300 303 303 302 304 301 299 299 298 297 295 294 294 294 294 294 291 287 285 285 285 282 280 281 282
243 245 247 247 249 250 252 254 256 261 264 265 268 271 277 278 278 280 286 291 294 297 298 298 299 297 298 296 297 296 294 293 292 290 290 290 289 286 285 285 286 283 283 282
241 245 248 249 251 253 254 256 258 262 264 266 267 269 271 273 274 277 281 285 289 291 291 293 296 295 295 294 294 294 293 292 291 291 289 287 287 286 285 285 288 286 285 284
239 243 247 249 252 254 257 258 259 261 263 264 264 264 266 270 274 275 277 282 284 286 288 289 291 293 292 291 289 291 292 292 291 290 290 288 286 285 284 284 284 284 285 284
238 242 246 248 251 254 256 258 259 261 261 260 260 261 263 266 269 271 274 278 279 283 284 285 287 287 288 288 286 288 290 291 290 289 288 288 286 283 283 283 282 283 284 284
238 240 243 247 250 253 255 258 259 259 259 259 259 259 261 263 264 267 271 273 274 279 281 282 284 285 288 289 288 289 289 289 289 287 286 286 285 283 281 281 281 282 284 284
239 240 243 245 249 252 254 257 259 258 259 260 258 258 259 260 263 267 270 270 272 276 281 282 283 286 286 287 288 289 289 288 288 287 285 285 284 283 281 280 280 281 282 283
238 240 242 244 247 250 253 255 257 258 259 258 256 256 256 260 261 265 268 270 272 274 278 280 281 282 283 284 286 288 287 287 287 286 286 285 284 281 279 279 279 280 281 281
239 241 242 243 244 247 250 252 254 255 255 255 254 254 256 258 263 265 268 269 269 271 275 278 280 281 282 283 285 286 285 285 285 284 285 284 282 281 279 278 278 279 281 282
239 240 241 241 243 244 246 248 250 252 252 252 253 254 256 259 260 263 266 267 268 271 274 275 277 280 281 282 283 285 284 284 284 283 283 282 280 278 278 277 277 278 280 281
237 238 239 239 241 242 243 245 247 251 251 253 255 255 256 258 259 261 263 266 268 270 272 274 277 278 280 280 281 283 283 282 281 280 279 278 277 278 278 277 276 276 278 280
237 238 238 239 239 241 242 245 247 248 250 252 252 253 254 256 257 258 260 264 268 270 273 275 276 277 278 278 279 280 280 280 279 278 277 276 276 277 277 276 276 276 278 281
235 235 236 237 238 240 242 243 243 245 247 249 250 250 254 257 258 260 262 265 268 269 271 273 275 276 276 277 277 277 277 276 276 275 275 275 276 276 275 275 276 277 279 281
231 231 233 235 237 238 240 242 243 243 245 248 250 252 255 256 258 261 263 265 267 268 270 272 274 274 275 275 275 274 273 273 274 274 275 275 275 275 275 276 277 279 281 282
230 231 232 232 234 236 237 238 240 241 243 247 249 252 254 255 258 259 261 262 263 266 269 271 272 273 274 273 272 272 272 272 274 274 274 274 274 275 277 277 280 280 281 282
226 227 229 232 232 232 233 235 237 240 242 244 248 251 253 255 257 258 260 261 263 267 269 270 272 273 272 270 270 270 270 271 274 274 275 274 274 275 276 277 280 281 280 280
222 221 223 226 227 229 231 235 237 239 241 244 247 249 251 253 255 258 259 260 262 265 268 269 271 270 267 267 267 268 269 271 272 273 275 275 276 277 279 279 279 281 282 283
216 216 219 222 224 225 226 230 234 238 240 242 243 245 249 251 253 256 257 259 260 262 265 267 268 267 266 266 267 268 270 272 273 274 275 276 277 278 280 282 283 284 285 286
217 216 217 219 222 226 228 230 233 237 241 241 241 245 247 250 253 256 256 257 259 262 264 265 265 266 267 267 268 270 271 272 273 274 275 277 279 281 282 284 285 287 288 288
213 214 216 218 219 222 225 227 232 236 238 240 242 245 248 252 255 256 255 256 259 261 263 263 264 265 267 269 270 270 271 272 274 275 277 279 281 283 284 286 287 288 289 290
207 210 215 218 220 222 224 227 231 234 236 240 244 246 250 253 254 254 254 254 256 259 260 261 263 266 267 270 272 273 273 274 275 277 279 281 283 285 286 287 288 289 291 292
201 207 211 214 218 221 224 228 232 236 239 242 244 246 248 250 252 254 256 257 258 262 264 265 267 269 270 272 274 275 275 277 279 280 282 283 284 286 288 289 290 292 293 294
198 203 209 211 214 218 223 227 230 235 237 240 244 246 248 251 255 257 259 261 264 267 268 269 270 271 273 275 276 276 278 280 282 283 285 286 287 288 289 290 291 292 293 294
Height
5845 5848 5850 5853 5855 5858 5860 5862 5864 5866 5868 5869 5869 5869 5869 5870 5870 5869 5869 5868 5866 5865 5864 5863 5862 5861 5860 5859 5858 5857 5856 5855 5854 5853 5852 5851 5850 5849 5849 5849 5849 5848 5848 5848
5838 5842 5844 5847 5850 5852 5855 5857 5859 5861 5864 5865 5865 5865 5866 5866 5866 5866 5866 5865 5864 5863 5861 5861 5860 5859 5858 5857 5856 5854 5853 5852 5851 5850 5849 5848 5847 5846 5845 5845 5845 5844 5844 5844
5831 5836 5838 5840 5845 5847 5850 5852 5855 5857 5860 5861 5862 5862 5863 5863 5863 5863 5863 5862 5861 5860 5859 5858 5857 5856 5855 5854 5852 5851 5850 5849 5848 5847 5845 5844 5843 5842 5841 5841 5840 5840 5840 5840
5824 5829 5831 5838 5840 5842 5845 5847 5850 5852 5854 5856 5857 5858 5859 5859 5859 5859 5859 5858 5857 5856 5855 5855 5854 5853 5851 5850 5849 5848 5847 5846 5845 5843 5842 5841 5839 5838 5838 5837 5837 5836 5836 5835
5816 5820 5824 5829 5833 5837 5839 5842 5844 5846 5848 5850 5852 5853 5854 5855 5855 5855 5855 5854 5853 5852 5851 5851 5850 5849 5848 5846 5845 5844 5843 5842 5841 5839 5838 5837 5835 5834 5834 5833 5833 5832 5831 5830
5808 5812 5816 5823 5827 5830 5834 5835 5839 5840 5842 5844 5846 5847 5849 5849 5850 5850 5849 5849 5849 5848 5847 5846 5845 5844 5843 5842 5841 5840 5838 5837 5836 5835 5834 5832 5831 5830 5829 5829 5828 5827 5826 5825
5800 5804 5809 5815 5819 5823 5827 5830 5832 5834 5835 5837 5839 5842 5843 5843 5843 5843 5843 5843 5843 5842 5842 5841 5840 5839 5838 5837 5836 5835 5834 5832 5831 5830 5829 5828 5826 5825 5824 5824 5823 5822 5821 5820
5791 5796 5802 5806 5811 5815 5818 5821 5824 5827 5829 5831 5833 5834 5836 5837 5837 5837 5837 5837 5837 5836 5836 5835 5834 5834 5833 5831 5831 5830 5829 5827 5826 5825 5823 5822 5821 5820 5819 5818 5817 5816 5815 5814
5783 5789 5793 5798 5802 5806 5809 5812 5816 5819 5821 5823 5825 5827 5828 5829 5830 5830 5830 5830 5830 5830 5829 5829 5828 5828 5827 5826 5825 5824 5823 5821 5820 5819 5817 5816 5815 5814 5813 5812 5811 5810 5809 5808
5773 5778 5783 5788 5792 5796 5800 5804 5807 5810 5813 5816 5817 5819 5820 5821 5822 5823 5823 5823 5823 5823 5823 5822 5822 5821 5821 5819 5818 5818 5816 5815 5814 5812 5811 5810 5809 5808 5807 5806 5805 5804 5803 5801
5762 5768 5773 5778 5783 5787 5791 5795 5798 5802 5805 5807 5809 5810 5812 5813 5814 5815 5815 5816 5816 5816 5816 5816 5815 5814 5814 5813 5812 5811 5810 5808 5807 5806 5804 5803 5802 5801 5800 5799 5798 5797 5796 5795
5752 5758 5763 5769 5773 5777 5781 5785 5789 5792 5795 5798 5800 5801 5803 5804 5805 5806 5807 5808 5808 5809 5809 5808 5808 5807 5807 5806 5805 5804 5803 5801 5800 5799 5798 5796 5795 5794 5793 5792 5791 5790 5789 5788
5742 5747 5753 5758 5763 5768 5772 5776 5779 5783 5786 5788 5791 5793 5794 5796 5797 5798 5799 5799 5800 5800 5801 5801 5800 5800 5799 5798 5797 5796 5795 5794 5793 5791 5790 5789 5788 5787 5786 5785 5784 5782 5781 5780
5732 5737 5743 5748 5753 5757 5762 5766 5770 5773 5776 5779 5781 5783 5785 5787 5788 5789 5790 5790 5791 5792 5793 5793 5792 5792 5791 5790 5789 5788 5787 5786 5785 5783 5782 5781 5780 5780 5778 5777 5776 5775 5774 5773
5723 5728 5733 5737 5742 5747 5752 5756 5760 5764 5767 5770 5773 5775 5776 5778 5779 5780 5781 5782 5783 5784 5784 5784 5783 5783 5782 5782 5781 5780 5779 5778 5776 5775 5774 5774 5773 5772 5771 5770 5769 5768 5767 5766
5714 5719 5724 5728 5733 5738 5743 5747 5751 5755 5758 5761 5764 5766 5768 5769 5771 5772 5773 5774 5774 5775 5775 5775 5775 5774 5774 5773 5772 5771 5770 5769 5769 5768 5767 5766 5765 5764 5763 5762 5762 5761 5760 5759
5706 5711 5716 5720 5724 5729 5734 5738 5742 5745 5749 5752 5755 5757 5759 5761 5762 5763 5764 5765 5766 5766 5766 5766 5766 5766 5765 5764 5764 5763 5762 5761 5761 5760 5759 5758 5757 5757 5756 5755 5754 5754 5753 5752
5699 5703 5708 5712 5717 5721 5725 5729 5733 5737 5740 5743 5746 5748 5750 5752 5753 5754 5755 5756 5757 5757 5758 5758 5757 5757 5757 5756 5756 5755 5754 5754 5753 5752 5751 5751 5750 5749 5749 5748 5747 5746 5745 5744
5691 5696 5701 5705 5709 5713 5717 5721 5725 5729 5732 5735 5738 5740 5742 5744 5745 5746 5747 5748 5749 5749 5750 5750 5749 5749 5748 5748 5748 5747 5746 5746 5745 5745 5744 5743 5743 5742 5742 5741 5740 5739 5738 5737
5685 5691 5695 5699 5703 5707 5710 5714 5718 5721 5724 5727 5730 5732 5734 5736 5737 5738 5739 5740 5741 5741 5741 5741 5741 5741 5741 5740 5740 5739 5739 5739 5738 5738 5737 5737 5736 5736 5735 5734 5733 5732 5731 5730
5680 5685 5689 5693 5697 5701 5705 5708 5711 5714 5717 5720 5722 5724 5726 5728 5729 5731 5732 5733 5733 5733 5733 5733 5733 5733 5733 5733 5733 5732 5732 5732 5732 5731 5731 5730 5730 5729 5728 5727 5726 5725 5724 5722
5676 5680 5684 5688 5692 5695 5699 5702 5705 5708 5711 5713 5715 5717 5719 5720 5722 5723 5724 5725 5725 5726 5726 5726 5726 5726 5726 5726 5726 5726 5726 5725 5725 5725 5724 5724 5723 5722 5721 5720 5719 5717 5716 5714
5672 5676 5680 5683 5687 5690 5693 5696 5700 5703 5705 5707 5709 5710 5712 5714 5715 5716 5717 5718 5718 5719 5719 5719 5719 5719 5719 5719 5719 5719 5719 5719 5718 5718 5717 5717 5716 5715 5713 5712 5711 5709 5708 5706
5669 5672 5676 5680 5683 5686 5689 5692 5695 5697 5700 5702 5703 5705 5706 5707 5709 5709 5710 5711 5712 5712 5712 5712 5713 5713 5713 5713 5712 5712 5712 5712 5711 5711 5710 5709 5708 5707 5706 5704 5703 5701 5700 5698
5667 5670 5673 5676 5679 5682 5685 5687 5690 5692 5695 5696 5698 5699 5700 5702 5703 5703 5704 5705 5705 5706 5706 5706 5706 5706 5706 5706 5706 5706 5705 5705 5704 5704 5703 5702 5700 5699 5698 5696 5694 5693 5691 5689
5665 5668 5670 5673 5676 5678 5681 5683 5686 5688 5690 5691 5693 5694 5695 5696 5697 5698 5698 5699 5700 5700 5700 5700 5700 5700 5700 5699 5699 5699 5698 5698 5697 5696 5695 5694 5692 5691 5689 5688 5686 5684 5682 5681
5664 5666 5668 5671 5673 5675 5678 5680 5682 5684 5686 5687 5688 5689 5690 5691 5692 5693 5693 5694 5694 5694 5694 5694 5694 5694 5693 5693 5692 5692 5691 5690 5689 5688 5687 5685 5684 5682 5681 5679 5677 5676 5674 5672